Regional Weather Roundup
Issued by NWS

Home | Current Version | Previous Version | Text Only | Print | Product List | Glossary On
Versions: 1 2 3 4 5 6 7 8 9 10 11 12 13 14 15 16 17 18 19 20 21 22 23 24 25 26 27 28 29 30 31 32 33 34 35 36 37 38 39 40 41 42 43 44 45 46 47 48 49 50
000
ASUS45 KBOU 262107
RWRCO

WEATHER ROUNDUP FOR COLORADO
NATIONAL WEATHER SERVICE DENVER/BOULDER CO
300 PM MDT THU MAY 26 2016

NOTE: "FAIR" INDICATES FEW OR NO CLOUDS BELOW 12000 FEET WITH NO
SIGNIFICANT WEATHER AND/OR OBSTRUCTIONS TO VISIBILITY.

COZ001>005-013-030-031-262200-
...NORTHWEST COLORADO...

CITY           SKY/WX    TMP DP  RH WIND       PRES   REMARKS
CRAIG          FAIR      63  34  33 SW8       29.92F
HAYDEN         FAIR      61  30  31 W5        29.93F
MEEKER         PTSUNNY   57  38  48 NE10      29.92F
MOUNT WERNER   NOT AVBL
STEAMBOAT SPGS FAIR      58  29  33 NE14G20   29.94F
WALDEN         CLOUDY    41  34  75 NE5       30.03S
$$

COZ006>008-011-262200-
...WEST CENTRAL VALLEYS...

CITY           SKY/WX    TMP DP  RH WIND       PRES   REMARKS
GRAND JUNCTION FAIR      70  19  14 S6        29.83F
MONTROSE       CLOUDY    57  34  41 SE20      29.96F
EAGLE          LGT RAIN  64  21  19 CALM      29.89S
RIFLE          FAIR      70  27  20 N10       29.85S
DELTA          FAIR      66  30  26 S17G24    29.92R
NUCLA          CLOUDY    59  27  29 SE10G18   30.00S
$$

COZ017>023-064>068-262200-
...SOUTHWEST COLORADO...

CITY           SKY/WX    TMP DP  RH WIND       PRES   REMARKS
DURANGO        PTSUNNY   59  25  27 NW20      29.93F
CORTEZ         CLOUDY    62  21  20 NW12G23   29.92R
PAGOSA SPRINGS FAIR      59  13  16 SW18G24   29.95F
TELLURIDE      SNOW      34  34 100 CALM      30.14S VSB 1/2
WOLF CREEK PAS PTSUNNY   34  21  60 SW9       30.13F WCI  26
$$

COZ009-010-012-014-032>034-037-058>063-262200-
...CENTRAL COLORADO...

CITY           SKY/WX    TMP DP  RH WIND       PRES   REMARKS
ASPEN          CLOUDY    51  25  36 SE15G22   30.00R
BUENA VISTA    CLOUDY    56  21  25 NE14G20   29.94F
COPPER MTN     NOT AVBL
BERTHOUD PASS  HAZE      27  18  69 N15       30.12F THUNDER VSB<1/4
COTTONWOOD PAS CLOUDY    52  19  28 SE12      30.02F
GUNNISON       CLOUDY    45  36  70 N14       30.05R
KREMMLING      CLOUDY    55  28  35 E9G20     29.99S
LEADVILLE      CLOUDY    41  24  51 VRB5G16   30.03S THUNDER HAZE
MONARCH PASS   FAIR      34  25  69 W26       30.22F WCI  21
SALIDA         PTSUNNY   57  29  34 SE21      30.01S
SUNLIGHT       CLOUDY    45  18  33 CALM      30.13S
WILKERSON PASS FAIR      37  27  65 W12G21    30.09F
$$

COZ069>075-262200-
...SAN LUIS VALLEY/SANGRE DE CRISTO MOUNTAINS...

CITY           SKY/WX    TMP DP  RH WIND       PRES   REMARKS
ALAMOSA        CLOUDY    57  24  28 W16G28    29.93R
LA VETA PASS   PTSUNNY   39  34  81 S7        30.01F THUNDER
SAGUACHE       CLOUDY    55  23  28 NW13      29.94S
$$

COZ035-036-038>040-262200-
...NORTHERN COLORADO FRONT RANGE...

CITY           SKY/WX    TMP DP  RH WIND       PRES   REMARKS
DENVER INTL AP TSTM      46  39  76 NE12      29.90S
DMNS CITY PARK   N/A     47  43  84 NE8G21    29.91R
AURORA         TSTM      47  44  92 N9        29.94R FOG
FRONT RANGE AP TSTM      50  39  66 NW15G26   29.91R
ERIE MUNI ARPT TSTM      51  44  75 N6G14     29.90R
BOULDER MUN AP PTSUNNY   59  32  36 N6        29.90S
CENTENNIAL     TSTM      51  39  63 VRB6      29.91R
BROOMFIELD     NOT AVBL
FORT COLLINS   PTSUNNY   54  45  71 NW9       29.93R
LONGMONT       DRIZZLE   55  46  71 NE7       29.92F
$$

COZ041-046-047-076>085-087-088-262200-
...PIKES PEAK/PALMER DIVIDE AND SOUTHERN FOOTHILLS...

CITY           SKY/WX    TMP DP  RH WIND       PRES   REMARKS
COLO. SPRINGS  TSTM      50  35  56 E22G32    29.86F
A. F. ACADEMY  CLOUDY    52  37  58 NE13G22   29.90R
SCHRIEVER AFB  NOT AVBL
ELLICOTT       TSTM     N/A N/A N/A NW21G39   29.89R
FALCON         TSTM      44  32  62 CALM      29.94R
FORT CARSON    NOT AVBL
LIMON          FAIR      64  45  49 E15       29.80F
MONUMENT HILL  TSTM      41  36  81 SW14      29.98R
TRINIDAD       FAIR      65  37  35 NW26G36   29.78F
$$

COZ042>045-048>051-090-091-262200-
...NORTHEAST COLORADO...

CITY           SKY/WX    TMP DP  RH WIND       PRES   REMARKS
GREELEY ARPT   PTSUNNY   55  39  54 N18       29.87F
AKRON          PTSUNNY   68  40  35 E17G26    29.83F
BURLINGTON     PTSUNNY   72  52  49 E18       29.75F
WRAY           PTSUNNY   75  43  31 NE17G23   29.78F
STERLING       FAIR      70  45  40 NE14      29.83F
HOLYOKE        NOT AVBL
FORT MORGAN    PTSUNNY   66  40  38 NE17G24   29.85F
$$

COZ086-089-092>099-262200-
...SOUTHEAST COLORADO...

CITY           SKY/WX    TMP DP  RH WIND       PRES   REMARKS
PUEBLO         PTSUNNY   66  36  32 S22G35    29.76F
LA JUNTA       FAIR      76  49  38 E18G24    29.68F
LAMAR          FAIR      78  52  40 E15G26    29.67F
SPRINGFIELD      N/A     80  45  28 SE12G24   29.71
$$



USA.gov is the U.S. government's official web portal to all federal, state and local government web resources and services.